, LA

(GMT )
East Cameron 278

Weather History for KEHC - January, 2014

Change the Weather History Date:

Friday, January 31, 2014

  Actual Average Record
Temperature  
Mean Temperature 68 °F -  
Max Temperature 73 °F - - ()
Min Temperature 64 °F - - ()
Cooling Degree Days 4    
Growing Degree Days 18 (Base 50)    
Moisture  
Dew Point 53 °F    
Average Humidity 60    
Maximum Humidity 78    
Minimum Humidity 49    
Precipitation  
Precipitation 0.00 in - - ()
Sea Level Pressure  
Sea Level Pressure 30.03 in    
Wind  
Wind Speed 14 mph (SSE)    
Max Wind Speed 20 mph    
Max Gust Speed 25 mph    
Visibility 10 miles    
Events      
Averages and records for this station are not official NWS values.
T = Trace of Precipitation, MM = Missing Value Source: NWS Daily Summary

Daily Weather History Graph

Daily Weather History Graph

Search for Another Location

Airport or City:

Trip Planner

Search our weather history database for the weather conditions in past years. The results will help you decide how hot, cold, wet, or windy it might be!

Date:

Astronomy

Jan. 31, 2014 Rise Set
Actual Time 6:59 AM CST 5:50 PM CST
Civil Twilight 6:35 AM CST 6:15 PM CST
Nautical Twilight 6:06 AM CST 6:43 PM CST
Astronomical Twilight 5:39 AM CST 7:11 PM CST
Moon 7:18 AM CST (1/31) 7:04 PM CST (1/31)
Length of Visible Light 11h 40m
Length of Day
10h 50m
New Moon, 1% of the Moon is Illuminated
Jan 31
New Moon
Feb 6
First Quarter
Feb 14
Full
Feb 22
Last Quarter
Mar 1
New

Hourly Weather History & Observations

Time (CST) Temp. Dew Point Humidity Pressure Visibility Wind Dir Wind Speed Gust Speed Precip Events Conditions
12:15 AM 64.4 °F 50.0 °F 59% 30.04 in 10.0 mi South 15.0 mph 20.7 mph N/A   Unknown
12:35 AM 64.4 °F 50.0 °F 59% 30.04 in 10.0 mi South 16.1 mph - N/A   Unknown
12:55 AM 64.4 °F 50.0 °F 59% 30.04 in 10.0 mi South 15.0 mph - N/A   Unknown
1:15 AM 64.4 °F 50.0 °F 59% 30.03 in 10.0 mi South 16.1 mph - N/A   Unknown
1:35 AM 64.4 °F 50.0 °F 59% 30.03 in 10.0 mi South 13.8 mph - N/A   Unknown
1:55 AM 64.4 °F 50.0 °F 59% 30.03 in 10.0 mi SSE 10.4 mph 17.3 mph N/A   Unknown
2:15 AM 64.4 °F 50.0 °F 59% 30.04 in 10.0 mi South 12.7 mph 18.4 mph N/A   Unknown
2:35 AM 64.4 °F 50.0 °F 59% 30.04 in 10.0 mi South 12.7 mph - N/A   Unknown
2:55 AM 64.4 °F 50.0 °F 59% 30.03 in 10.0 mi South 10.4 mph - N/A   Unknown
3:15 AM 64.4 °F 51.8 °F 64% 30.03 in 10.0 mi South 11.5 mph - N/A   Unknown
3:35 AM 64.4 °F 51.8 °F 64% 30.03 in 10.0 mi SSE 12.7 mph - N/A   Unknown
3:55 AM 66.2 °F 51.8 °F 60% 30.04 in 10.0 mi South 12.7 mph - N/A   Unknown
4:15 AM 66.2 °F 51.8 °F 60% 30.04 in 10.0 mi South 12.7 mph - N/A   Unknown
4:35 AM 66.2 °F 51.8 °F 60% 30.04 in 10.0 mi South 12.7 mph - N/A   Unknown
4:55 AM 66.2 °F 51.8 °F 60% 30.03 in 10.0 mi South 11.5 mph - N/A   Unknown
5:15 AM 66.2 °F 51.8 °F 60% 30.04 in 10.0 mi South 12.7 mph - N/A   Unknown
5:35 AM 66.2 °F 51.8 °F 60% 30.04 in 10.0 mi South 11.5 mph - N/A   Unknown
5:55 AM 66.2 °F 51.8 °F 60% 30.04 in 10.0 mi South 10.4 mph - N/A   Unknown
6:15 AM 66.2 °F 51.8 °F 60% 30.05 in 10.0 mi SSE 8.1 mph - N/A   Unknown
6:35 AM 66.2 °F 51.8 °F 60% 30.05 in 10.0 mi South 12.7 mph - N/A   Unknown
6:55 AM 66.2 °F 51.8 °F 60% 30.06 in 10.0 mi SSE 10.4 mph 17.3 mph N/A   Unknown
7:15 AM 66.2 °F 53.6 °F 64% 30.06 in 10.0 mi SSE 13.8 mph - N/A   Unknown
7:35 AM 66.2 °F 51.8 °F 60% 30.07 in 9.0 mi SSE 15.0 mph - N/A   Unknown
7:55 AM 68.0 °F 51.8 °F 56% 30.07 in 9.0 mi SSE 13.8 mph - N/A   Unknown
8:15 AM 68.0 °F 51.8 °F 56% 30.07 in 9.0 mi SSE 16.1 mph - N/A   Unknown
8:35 AM 68.0 °F 51.8 °F 56% 30.07 in 10.0 mi SE 15.0 mph - N/A   Unknown
8:55 AM 68.0 °F 50.0 °F 52% 30.08 in 9.0 mi SSE 12.7 mph 18.4 mph N/A   Unknown
9:15 AM 68.0 °F 50.0 °F 52% 30.08 in 9.0 mi SSE 15.0 mph - N/A   Unknown
9:35 AM 69.8 °F 51.8 °F 53% 30.09 in 10.0 mi SSE 16.1 mph - N/A   Unknown
9:55 AM 69.8 °F 50.0 °F 49% 30.09 in 9.0 mi SSE 16.1 mph - N/A   Unknown
10:15 AM 69.8 °F 50.0 °F 49% 30.08 in 9.0 mi SSE 16.1 mph 25.3 mph N/A   Unknown
10:35 AM 69.8 °F 50.0 °F 49% 30.08 in 9.0 mi SSE 13.8 mph 19.6 mph N/A   Unknown
10:55 AM 69.8 °F 51.8 °F 53% 30.07 in 9.0 mi SE 18.4 mph - N/A   Unknown
11:15 AM 69.8 °F 51.8 °F 53% 30.07 in 9.0 mi SSE 17.3 mph - N/A   Unknown
11:35 AM 69.8 °F 51.8 °F 53% 30.06 in 10.0 mi SSE 13.8 mph - N/A   Unknown
11:55 AM 69.8 °F 51.8 °F 53% 30.05 in 9.0 mi South 13.8 mph - N/A   Partly Cloudy
12:15 PM 69.8 °F 53.6 °F 56% 30.05 in 9.0 mi South 11.5 mph - N/A   Unknown
12:35 PM 69.8 °F 51.8 °F 53% 30.04 in 10.0 mi South 9.2 mph 16.1 mph N/A   Unknown
12:55 PM 69.8 °F 51.8 °F 53% 30.03 in 9.0 mi South 11.5 mph - N/A   Unknown
1:15 PM 69.8 °F 51.8 °F 53% 30.03 in 10.0 mi South 11.5 mph - N/A   Unknown
1:35 PM 71.6 °F 51.8 °F 50% 30.02 in 9.0 mi South 9.2 mph - N/A   Unknown
1:55 PM 71.6 °F 51.8 °F 50% 30.02 in 9.0 mi South 10.4 mph - N/A   Unknown
2:15 PM 71.6 °F 51.8 °F 50% 30.01 in 10.0 mi SSE 11.5 mph - N/A   Unknown
2:35 PM 71.6 °F 51.8 °F 50% 30.01 in 9.0 mi SSE 9.2 mph - N/A   Unknown
2:55 PM 73.4 °F 53.6 °F 50% 30.01 in 10.0 mi SSE 9.2 mph - N/A   Clear
3:15 PM 71.6 °F 53.6 °F 53% 30.00 in 9.0 mi SSE 10.4 mph - N/A   Unknown
3:35 PM 71.6 °F 53.6 °F 53% 30.01 in 9.0 mi SSE 12.7 mph - N/A   Partly Cloudy
3:55 PM 69.8 °F 53.6 °F 56% 30.01 in 10.0 mi SSE 11.5 mph - N/A   Partly Cloudy
4:15 PM 69.8 °F 55.4 °F 60% 30.01 in 10.0 mi SSE 11.5 mph 17.3 mph N/A   Clear
4:35 PM 71.6 °F 53.6 °F 53% 30.01 in 10.0 mi SE 12.7 mph - N/A   Clear
4:55 PM 71.6 °F 53.6 °F 53% 30.00 in 10.0 mi SE 13.8 mph - N/A   Clear
5:15 PM 69.8 °F 53.6 °F 56% 30.00 in 10.0 mi SE 16.1 mph - N/A   Clear
5:35 PM 69.8 °F 53.6 °F 56% 30.00 in 10.0 mi SE 15.0 mph - N/A   Clear
5:55 PM 68.0 °F 55.4 °F 64% 30.00 in 10.0 mi SE 16.1 mph - N/A   Clear
6:15 PM 68.0 °F 55.4 °F 64% 30.00 in 10.0 mi SE 15.0 mph - N/A   Clear
6:35 PM 68.0 °F 55.4 °F 64% 30.00 in 10.0 mi SE 17.3 mph - N/A   Clear
6:55 PM 66.2 °F 55.4 °F 68% 30.00 in 10.0 mi SE 18.4 mph - N/A   Mostly Cloudy
7:15 PM 68.0 °F 55.4 °F 64% 30.00 in 10.0 mi SE 19.6 mph - N/A   Mostly Cloudy
7:35 PM 68.0 °F 57.2 °F 68% 30.00 in 10.0 mi SE 17.3 mph - N/A   Unknown
7:55 PM 66.2 °F 57.2 °F 73% 30.00 in 10.0 mi SE 18.4 mph - N/A   Unknown
8:15 PM 66.2 °F 57.2 °F 73% 30.00 in 10.0 mi SE 17.3 mph - N/A   Unknown
8:35 PM 66.2 °F 59.0 °F 78% 30.01 in 10.0 mi SE 17.3 mph - N/A   Unknown
8:55 PM 66.2 °F 57.2 °F 73% 30.01 in 10.0 mi SE 18.4 mph - N/A   Unknown
9:15 PM 66.2 °F 59.0 °F 78% 30.00 in 10.0 mi SE 17.3 mph - N/A   Unknown
9:35 PM 66.2 °F 59.0 °F 78% 30.00 in 10.0 mi SE 16.1 mph - N/A   Unknown
9:55 PM 68.0 °F 59.0 °F 73% 30.00 in 10.0 mi SE 18.4 mph - N/A   Unknown
10:15 PM 68.0 °F 59.0 °F 73% 30.00 in 10.0 mi SE 19.6 mph - N/A   Unknown
10:35 PM 68.0 °F 59.0 °F 73% 30.00 in 10.0 mi SE 18.4 mph - N/A   Unknown
10:55 PM 68.0 °F 59.0 °F 73% 29.99 in 10.0 mi SE 18.4 mph - N/A   Unknown
11:15 PM 68.0 °F 59.0 °F 73% 29.99 in 10.0 mi SE 19.6 mph - N/A   Unknown
11:35 PM 68.0 °F 60.8 °F 78% 29.98 in 10.0 mi SE 19.6 mph - N/A   Unknown
11:55 PM 68.0 °F 60.8 °F 78% 29.98 in 10.0 mi SSE 19.6 mph - N/A   Unknown